Flag for U.S.A. Weather past 2 weeks in Atlanta, Georgia, U.S.A.

Now
77 °F

Sunny.


Feels Like: 79 °F
Forecast: 69 / 86 °F
Wind: No wind

Location: Fulton County Airport-Brown Field

Current Time: Jul 25, 2014 at 10:53:47 AM

Latest Report: Jul 25, 2014 at 9:53 AM


Visibility: 10 mi

Pressure: 30.05 "Hg

Humidity: 79%

Dew point: 70 °F

Location of AtlantaLocation

Historic Weather in Atlanta — Graph

°F

Atlanta temperature yesterday

Maximum temperature yesterday: 83 °F (at 11:53 AM)
Minimum temperature yesterday: 72 °F (at 6:53 AM)
Average temperature yesterday: 76 °F

Past Weeks' High & Low Weather Summary

 TemperatureHumidityPressure
High91 °F (Jul 13, 3:53 PM)97% (Jul 20, 5:53 AM)30.21 "Hg (Jul 20, 5:53 AM)
Low59 °F (Jul 17, 6:53 AM)33% (Jul 16, 4:53 PM)29.82 "Hg (Jul 15, 6:53 PM)
Average76 °F77%30.02 "Hg
* Reported Jul 10 9:53 AM — Jul 25 9:53 AM, Atlanta, Weather by CustomWeather, © 2014

Note: Actual official high and low records may vary slightly from our data, if they occured in-between our weather recording intervals... More about our weather records

Advertising

Atlanta weather history for previous 24 hours

 ConditionsComfort  
Time TempWeatherWind HumidityBarometerVisibility
9:53 AM
Jul 25
77 °FSunny.No wind79%30.05 "Hg10 mi
8:53 AM74 °FSunny.No wind85%30.04 "Hg9 mi
7:53 AM71 °FSunny.No wind90%30.02 "Hg7 mi
6:53 AM70 °FFog.No wind90%29.99 "Hg6 mi
5:53 AM68 °FFog.No wind93%29.98 "Hg6 mi
4:53 AM70 °FFog.No wind93%29.96 "Hg6 mi
3:53 AM72 °FClear.No wind91%29.95 "Hg10 mi
2:53 AM73 °FPassing clouds.No wind88%29.97 "Hg10 mi
1:53 AM72 °FClear.No wind93%29.97 "Hg10 mi
12:53 AM73 °FPassing clouds.No wind90%29.97 "Hg10 mi
11:53 PM
Jul 24
74 °FPassing clouds.3 mph91%29.96 "Hg10 mi
10:53 PM73 °FClear.3 mph94%29.96 "Hg10 mi
9:53 PM75 °FClear.3 mph88%29.94 "Hg10 mi
8:53 PM76 °FSunny.3 mph88%29.93 "Hg10 mi
7:53 PM76 °FSunny.3 mph88%29.93 "Hg10 mi
6:53 PM77 °FSunny.3 mph85%29.92 "Hg10 mi
6:03 PM73 °FRain. Fog.No wind94%29.96 "Hg1 mi
5:53 PM73 °FHeavy rain. Fog.7 mph90%29.95 "Hg0 mi
4:53 PM81 °FPassing clouds.5 mph72%29.91 "Hg10 mi
3:53 PM83 °FPassing clouds.5 mph77%29.92 "Hg10 mi
2:53 PM78 °FPartly sunny.5 mph79%29.93 "Hg10 mi
1:53 PM81 °FPassing clouds.7 mph72%29.94 "Hg10 mi
12:53 PM83 °FBroken clouds.5 mph65%29.96 "Hg10 mi
11:53 AM83 °FBroken clouds.8 mph65%29.97 "Hg10 mi
10:53 AM82 °FScattered clouds.7 mph70%29.98 "Hg10 mi
Weather by CustomWeather, © 2014

See weather overviewHow to use our weather pages